#timestamp,LO_Frequency,Hit,StdDev 
1514635215.2,286047014.4,N
1514635235.0,286047015.8,N
1514635235.9,286047015.8,N
1514635255.8,286047024.5,Y
1514635275.6,286047017.3,P
1514635295.4,286047024.3,P
1514635315.3,286047024.3,P
1514635335.1,286047026.1,Y
1514635336.0,286047026.1,P
1514635355.8,286047005.5,N
1514635375.7,286047003.9,N
1514635395.5,286047003.4,N
1514635415.3,286047002.7,N
1514635435.2,286046999.8,N
1514635455.9,286047001.7,N
1514635475.7,286047004.9,N
1514635495.5,286047009.0,N
1514635515.4,286047009.4,N
1514635535.2,286047012.7,N
1514635555.0,286047011.1,N
1514635555.9,286047011.1,N
1514635575.8,286047012.8,N
1514635595.6,286047014.8,N
1514635615.4,286047011.1,N
1514635635.3,286047012.1,N
1514635655.1,286047008.3,N
1514635656.0,286047008.3,N
1514635675.8,286047005.7,N
1514635695.7,286046999.8,N
1514635715.5,286046998.9,N
1514635735.3,286047001.2,N
1514635755.2,286047002.5,N
1514635775.9,286047001.6,N
1514635795.7,286047000.3,N
1514635815.6,286046996.6,N
1514635835.4,286046998.4,N
1514635855.2,286047004.2,N
1514635875.0,286047000.2,N
1514635875.9,286047000.2,N
1514635895.8,286047004.2,N
1514635915.6,286047000.1,N
1514635935.4,286047002.1,N
1514635955.3,286047003.3,N
1514635975.1,286047002.9,N
1514635995.8,286047002.7,N
1514636015.7,286046998.2,N
1514636035.5,286046999.0,N
1514636055.3,286046996.9,N
1514636075.2,286046997.3,N
1514636095.9,286046996.0,N
1514636115.7,286046998.0,N
1514636135.6,286046993.6,N
1514636155.4,286046992.4,N
1514636175.2,286046994.6,N
1514636195.0,286046994.5,N
1514636195.9,286046994.5,N
1514636215.8,286046991.6,N
1514636235.6,286046988.2,Y
1514636255.5,286046986.7,P
1514636275.3,286046988.4,N
1514636295.1,286046992.5,N
1514636315.8,286046990.2,N
1514636335.7,286046990.8,N
1514636355.5,286046988.6,N
1514636375.3,286046990.9,N
1514636395.2,286046991.5,N
1514636415.9,286046991.6,N
1514636435.7,286046992.2,N
1514636455.6,286046987.7,Y
1514636475.4,286046993.4,P
1514636495.2,286046995.6,P
1514636515.1,286046995.9,N
1514636516.0,286046995.9,N
1514636535.8,286046995.1,N
1514636555.6,286046997.5,N
1514636575.5,286046999.5,N
1514636595.3,286046996.4,N
1514636615.1,286046996.6,N
1514636635.9,286046994.9,N
1514636655.7,286046998.7,N
1514636675.5,286046997.3,N
1514636695.3,286046999.4,N
1514636715.2,286046996.2,N
1514636735.0,286046995.1,N
1514636735.9,286046995.1,N
1514636755.7,286046996.1,N
1514636775.6,286046996.1,N
1514636795.4,286046992.6,Y
1514636815.2,286046993.4,P
1514636835.1,286046990.3,P
1514636836.0,286046990.3,P
1514636855.8,286046990.1,Y
1514636875.7,286046999.8,P
1514636895.5,286046998.1,N
1514636915.3,286046998.9,N
1514636935.1,286046997.5,N
1514636955.9,286046995.1,N
1514636975.7,286046993.8,N
1514636995.5,286046995.9,N
1514637015.4,286046991.2,Y
1514637035.2,286046993.2,P
1514637055.0,286046996.1,N
1514637055.9,286046996.1,N
1514637075.8,286046992.5,Y
1514637095.6,286046998.4,P
1514637115.4,286046997.0,N
1514637135.3,286046993.3,P
1514637155.1,286046994.0,Y
1514637175.8,286046999.3,P
1514637195.7,286046997.6,N
1514637215.5,286046993.8,P
1514637235.3,286046997.0,N
1514637255.2,286046998.6,N
1514637275.9,286046996.6,N
1514637295.7,286046995.4,N
1514637315.6,286046995.2,N
1514637335.4,286046995.2,N
1514637355.2,286046996.1,N
1514637375.1,286046997.4,N
1514637376.0,286046997.4,N
1514637395.8,286046993.9,Y
1514637415.6,286046999.9,P
1514637435.5,286046998.3,N
1514637455.3,286047000.9,N
1514637475.1,286047000.5,N
1514637495.9,286046998.2,N
1514637515.7,286046996.0,N
1514637535.5,286046992.3,Y
1514637555.4,286046996.8,P
1514637575.2,286046999.4,N
1514637595.0,286047002.6,N
1514637595.9,286047002.6,N
1514637615.8,286047001.9,N
1514637635.6,286047001.9,N
1514637655.4,286047000.8,N
1514637675.2,286046998.4,N
1514637695.1,286047000.0,N
1514637696.0,286047000.0,N
1514637715.8,286047000.7,N
1514637735.6,286046998.9,N
1514637755.5,286046996.5,N
1514637775.3,286046998.3,N
1514637795.1,286046999.6,N
1514637815.9,286046998.5,N
1514637835.7,286046996.5,N
1514637855.5,286046998.0,N
1514637875.4,286046999.2,N
1514637895.2,286046997.5,N
1514637915.0,286046995.7,N
1514637915.9,286046995.7,N
1514637935.8,286046992.6,Y
1514637955.6,286046993.8,P
1514637975.4,286046993.6,N
1514637995.3,286046992.1,P
1514638015.1,286046990.2,Y
1514638016.0,286046990.2,P
1514638035.8,286046996.7,N
1514638055.7,286046996.3,N
1514638075.5,286046997.2,N
1514638095.3,286046996.5,N
1514638115.1,286046996.7,N
1514638135.9,286046998.9,N
1514638155.7,286047002.1,N
1514638175.5,286047002.3,N
1514638195.4,286047000.9,N
1514638215.2,286047001.0,N
1514638235.0,286046998.8,N
1514638235.9,286046998.8,N
1514638255.8,286047002.7,N
1514638275.6,286047000.2,N
1514638295.4,286047000.4,N
1514638315.3,286047004.1,N
1514638335.1,286046999.8,N
1514638336.0,286046999.8,N
1514638355.8,286047000.3,N
1514638375.7,286046998.6,N
1514638395.5,286046999.6,N
1514638415.3,286046998.1,N
1514638435.2,286047002.3,N
1514638455.9,286047001.8,N
1514638475.7,286047004.2,N
1514638495.5,286047007.5,N
1514638515.4,286047008.8,N
1514638535.2,286047008.6,N
1514638555.0,286047008.6,N
1514638555.9,286047008.6,N
1514638575.8,286047012.0,Y
1514638595.6,286047014.4,P
1514638615.4,286047017.5,N
1514638635.3,286047019.3,N
1514638655.1,286047024.2,Y
1514638675.8,286047012.5,P
1514638695.7,286047014.4,P
1514638715.5,286047015.9,P
1514638735.3,286047016.2,Y
1514638755.2,286047003.2,P
1514638775.0,286047005.1,N
1514638775.9,286047005.1,N
1514638795.7,286047008.3,N
